Sun Universe — 3FOQ4 — position and weather

sailwx.info

Track history (hours):
 
Tides and Currents Weather Stations Pressure Air Temp Water Temp Dewpoint Dewpoint Depression Visibility Wind Speed Wind Dir Waves Ship Positions

Sun Universe

Last reported at 2014-Oct-21 19:33 UTC. Time now 2014-Oct-21 20:02 UTC.
Position N 22°49' E 116°37'.

Length 116 m; draft 8 m.

Type: Cargo ship. MMSI: 371647000.

Date/timePositionNaut miles runAvg speedWind from/ knotsBaromVisibWave heightAir tempDewpointWater temp
2014-Oct-21 19:33N 22°49' E 116°37'1413.6
2014-Oct-21 18:33N 22°56' E 116°50'1413.5
2014-Oct-21 17:34N 23°02' E 117°03'1414.0
2014-Oct-21 16:34N 23°09' E 117°16'1312.9
2014-Oct-21 15:33N 23°17' E 117°28'1513.4
2014-Oct-21 14:26N 23°27' E 117°40'1212.4
2014-Oct-21 13:30N 23°35' E 117°49'1212.3
2014-Oct-21 12:33N 23°43' E 117°58'1211.8
2014-Oct-21 11:32N 23°51' E 118°08'1212.0
2014-Oct-21 10:32N 23°58' E 118°18'1212.0
2014-Oct-21 09:31N 24°07' E 118°28'1212.7
2014-Oct-21 08:32N 24°15' E 118°38'1212.4
2014-Oct-21 07:33N 24°23' E 118°48'1212.4
2014-Oct-21 06:33N 24°31' E 118°58'1212.4
2014-Oct-21 05:33N 24°39' E 119°08'1312.6
2014-Oct-21 04:33N 24°48' E 119°19'30213.1
2014-Oct-20 05:33N 28°25' E 123°13'1413.1
2014-Oct-20 04:27N 28°35' E 123°24'1212.8
2014-Oct-20 03:31N 28°44' E 123°34'42812.8
2014-Oct-18 18:11N 33°36' E 129°39'913.8
2014-Oct-18 17:32N 33°39' E 129°49'1313.5
2014-Oct-18 16:33N 33°46' E 130°04'1413.6
2014-Oct-18 15:32N 33°53' E 130°17'  
2014-Oct-15 20:32N 34°05' E 132°50'1212.6
2014-Oct-15 19:33N 33°55' E 132°40'9111.3
2014-Oct-15 11:28N 34°02' E 130°50'1712.8
2014-Oct-15 10:10N 33°60' E 130°30'813.2
2014-Oct-15 09:32N 33°55' E 130°21'1313.2
2014-Oct-15 08:33N 33°48' E 130°08'1312.8
2014-Oct-15 07:32N 33°41' E 129°55'42712.9
2014-Oct-13 22:17N 30°02' E 122°43'810.7
2014-Oct-13 21:33N 29°56' E 122°37'1110.8
2014-Oct-13 20:34N 29°46' E 122°32'1111.2
2014-Oct-13 19:33N 29°36' E 122°26'24211.4
2014-Oct-12 22:23N 26°14' E 119°56'  
Track history (hours):
 
Tides and Currents Weather Stations Pressure Air Temp Water Temp Dewpoint Dewpoint Depression Visibility Wind Speed Wind Dir Waves Ship Positions

Sun Universe

Last reported at 2014-Oct-21 19:33 UTC. Time now 2014-Oct-21 20:02 UTC.
Position N 22°49' E 116°37'.

Length 116 m; draft 8 m.

Type: Cargo ship. MMSI: 371647000.

Date/timePositionNaut miles runAvg speedWind from/ knotsBaromVisibWave heightAir tempDewpointWater temp
2014-Oct-21 19:33N 22°49' E 116°37'1413.6
2014-Oct-21 18:33N 22°56' E 116°50'1413.5
2014-Oct-21 17:34N 23°02' E 117°03'1414.0
2014-Oct-21 16:34N 23°09' E 117°16'1312.9
2014-Oct-21 15:33N 23°17' E 117°28'1513.4
2014-Oct-21 14:26N 23°27' E 117°40'1212.4
2014-Oct-21 13:30N 23°35' E 117°49'1212.3
2014-Oct-21 12:33N 23°43' E 117°58'1211.8
2014-Oct-21 11:32N 23°51' E 118°08'1212.0
2014-Oct-21 10:32N 23°58' E 118°18'1212.0
2014-Oct-21 09:31N 24°07' E 118°28'1212.7
2014-Oct-21 08:32N 24°15' E 118°38'1212.4
2014-Oct-21 07:33N 24°23' E 118°48'1212.4
2014-Oct-21 06:33N 24°31' E 118°58'1212.4
2014-Oct-21 05:33N 24°39' E 119°08'1312.6
2014-Oct-21 04:33N 24°48' E 119°19'30213.1
2014-Oct-20 05:33N 28°25' E 123°13'1413.1
2014-Oct-20 04:27N 28°35' E 123°24'1212.8
2014-Oct-20 03:31N 28°44' E 123°34'42812.8
2014-Oct-18 18:11N 33°36' E 129°39'913.8
2014-Oct-18 17:32N 33°39' E 129°49'1313.5
2014-Oct-18 16:33N 33°46' E 130°04'1413.6
2014-Oct-18 15:32N 33°53' E 130°17'  
2014-Oct-15 20:32N 34°05' E 132°50'1212.6
2014-Oct-15 19:33N 33°55' E 132°40'9111.3
2014-Oct-15 11:28N 34°02' E 130°50'1712.8
2014-Oct-15 10:10N 33°60' E 130°30'813.2
2014-Oct-15 09:32N 33°55' E 130°21'1313.2
2014-Oct-15 08:33N 33°48' E 130°08'1312.8
2014-Oct-15 07:32N 33°41' E 129°55'42712.9
2014-Oct-13 22:17N 30°02' E 122°43'810.7
2014-Oct-13 21:33N 29°56' E 122°37'1110.8
2014-Oct-13 20:34N 29°46' E 122°32'1111.2
2014-Oct-13 19:33N 29°36' E 122°26'24211.4
2014-Oct-12 22:23N 26°14' E 119°56'  

Dump ship's entire track history